Location: Saint Louis
(38.6272°N, 90.1978°W)
Time: 11:43:13
(UTC-06:00)

Hubble Space Telescope - Visible Passes

Search period start: 18 January 2018 00:00
Search period end: 28 January 2018 00:00
Orbit: 537 x 541 km, 28.5° (Epoch: 17 January)

Date Brightness Start Highest point End Pass type
(mag) Time Alt. Az. Time Alt. Az. Time Alt. Az.
23 Jan 3.3 19:33:20 10° SSW 19:34:20 13° SSW 19:34:20 13° SSW visible
24 Jan 3.0 19:22:46 10° SW 19:24:44 17° S 19:24:44 17° S visible
25 Jan 2.7 19:12:17 10° SW 19:15:07 19° S 19:15:07 19° S visible
26 Jan 2.6 19:01:52 10° SW 19:04:51 19° S 19:05:31 19° SSE visible
27 Jan 2.7 18:51:29 10° SW 18:54:30 20° S 18:55:55 17° SSE visible
